User: anonymous   Login
Location: Unspecified
(0.0000°N, 0.0000°E)
Time: 09:52:03
(UTC+02:00)
Language:

Meteor 2-8 Rocket - Orbit

View from above orbital plane
View from above orbital plane
View from above satellite
View from above satellite

Ground track
Ground track

The orbit data is extracted from the following two-line orbital elements,

1 13114U 82025B   17143.57756539 +.00000024 +00000-0 +80494-5 0  9996
2 13114 082.5415 222.3406 0013775 214.9086 257.2457 13.84660034777007
Epoch (UTC): 23 May 2017 13:51:41
Eccentricity: 0.0013775
inclination: 82.5415°
perigee height: 937 km
apogee height: 957 km
right ascension of ascending node: 222.3406°
argument of perigee: 214.9086°
revolutions per day: 13.84660034
mean anomaly at epoch: 257.2457°
orbit number at epoch: 77700

The dashed part of the orbit path shows where the satellite is in the earth's shadow,  

DLR